This is the latest recevied weather packets stored in our database for station/object EA3ANS-1. If no packets are shown the sender has not sent any weather packets the latest 10 day(s).
| Time | Temp. | Humidity | Pressure | Rain* | Wind** | Luminosity | Snow |
|---|---|---|---|---|---|---|---|
| 1777498827 | 17.22° C | - | 1014 hPa | 0 mm | 1.34 m/s, 131° | - | - |
| 1777498229 | 17.78° C | - | 1014.1 hPa | 0 mm | 1.34 m/s, 121° | - | - |
| 1777497632 | 17.78° C | - | 1014 hPa | 0 mm | 1.34 m/s, 122° | - | - |
| 1777497034 | 17.78° C | - | 1013.9 hPa | 0 mm | 1.34 m/s, 127° | - | - |
| 1777496433 | 18.33° C | - | 1013.7 hPa | 0 mm | 1.34 m/s, 139° | - | - |
| 1777495835 | 18.33° C | - | 1013.6 hPa | 0 mm | 1.79 m/s, 158° | - | - |
| 1777495238 | 18.33° C | - | 1013.6 hPa | 0 mm | 1.34 m/s, 214° | - | - |
| 1777494633 | 18.33° C | - | 1013.3 hPa | 0 mm | 0.89 m/s, 155° | - | - |
| 1777494036 | 18.33° C | - | 1013.3 hPa | 0 mm | 1.34 m/s, 139° | - | - |
| 1777493438 | 18.89° C | - | 1013.4 hPa | 0 mm | 2.24 m/s, 114° | - | - |
| 1777492833 | 18.89° C | - | 1013 hPa | 0 mm | 0.89 m/s, 141° | - | - |
| 1777492235 | 18.89° C | - | 1013 hPa | 0 mm | 1.79 m/s, 149° | - | - |
| 1777491638 | 18.89° C | - | 1012.9 hPa | 0 mm | 1.34 m/s, 115° | - | - |
| 1777491038 | 18.89° C | - | 1012.6 hPa | 0 mm | 2.24 m/s, 150° | - | - |
| 1777490433 | 19.44° C | - | 1012.6 hPa | 0 mm | 0.89 m/s, 162° | - | - |
| 1777489833 | 20° C | - | 1012.6 hPa | 0 mm | 0.89 m/s, 128° | - | - |
| 1777489233 | 20° C | - | 1012.2 hPa | 0 mm | 1.79 m/s, 135° | - | - |
| 1777488635 | 20° C | - | 1012.1 hPa | 0 mm | 1.34 m/s, 152° | - | - |
| 1777488038 | 20.56° C | - | 1012 hPa | 0 mm | 1.34 m/s, 179° | - | - |
| 1777487436 | 21.11° C | - | 1011.7 hPa | 0 mm | 0.89 m/s, 125° | - | - |
| 1777486838 | 21.67° C | - | 1010.9 hPa | 0 mm | 1.79 m/s, 165° | - | - |
| 1777486234 | 21.67° C | - | 1011.5 hPa | 0 mm | 1.79 m/s, 155° | - | - |
| 1777485636 | 22.22° C | - | 1011.2 hPa | 0 mm | 2.24 m/s, 108° | - | - |
| 1777485036 | 22.22° C | - | 1010.9 hPa | 0 mm | 1.34 m/s, 115° | - | - |
| 1777484438 | 22.78° C | - | 1011.4 hPa | 0 mm | 1.79 m/s, 155° | - | - |
* Rain latest hour (hover to see other rain measurements)
** Current wind speed in m/s (hover to see current wind gust speed)